Temperature
17 17 18 18 18 18 18 18 18 18 18 18 18 18 18 18 18 18 18 18 18 18 18 18 18 18 18 18 18 18 18 18 18 18 18 18 18 18 18 18 18 17 18
17 17 18 17 17 18 18 17 18 18 18 18 18 17 17 17 17 17 17 17 17 17 17 17 17 17 18 18 18 18 18 18 18 18 18 18 18 18 18 18 18 18 18
17 17 17 17 17 17 17 17 17 17 17 17 17 17 17 17 17 17 17 17 17 17 17 17 17 17 17 17 18 18 18 18 18 18 18 17 17 18 18 18 18 18 18
17 17 16 17 17 17 17 17 17 17 17 17 17 17 17 17 17 17 17 17 17 17 17 17 17 17 17 17 17 17 18 18 18 18 17 17 17 18 18 18 18 18 18
17 16 16 17 17 17 17 17 17 17 16 16 16 16 16 16 16 16 16 16 16 16 16 17 17 17 17 17 17 17 18 18 18 17 17 17 17 18 18 18 18 18 18
17 16 16 17 17 17 17 16 16 16 16 16 16 16 16 16 16 16 16 16 16 16 16 16 17 17 17 17 17 17 17 18 17 17 17 17 17 18 18 18 18 18 18
17 16 16 16 16 16 16 16 16 16 16 16 16 16 16 15 15 15 15 15 15 16 16 16 16 16 17 17 17 17 17 17 16 16 17 17 17 18 18 18 18 18 18
17 16 16 16 16 16 16 16 16 16 15 15 15 15 15 15 15 15 15 15 15 15 16 16 16 16 16 17 17 17 17 17 17 17 16 17 17 18 18 18 18 18 18
17 16 16 16 16 16 16 16 16 16 15 15 15 15 15 15 15 15 15 15 15 15 15 15 16 16 16 16 17 17 17 17 16 17 17 17 17 17 18 18 18 18 18
17 16 16 16 16 16 16 16 16 16 16 15 15 15 15 15 15 15 15 15 15 15 15 15 15 15 16 16 16 16 17 17 16 17 17 17 17 17 17 17 18 18 18
17 17 17 16 16 16 16 16 15 15 15 15 15 15 15 15 15 15 15 15 15 15 15 15 15 15 16 16 16 16 16 17 16 17 16 17 17 17 17 17 17 18 17
18 17 17 17 16 16 16 16 16 15 15 15 15 15 15 15 15 15 15 15 15 15 15 15 15 15 15 16 16 16 16 16 17 17 17 17 17 17 17 17 17 17 17
18 17 17 17 17 17 16 16 16 15 15 15 15 15 15 15 15 15 15 15 14 15 15 15 15 15 15 15 16 16 16 16 17 17 16 17 17 17 17 17 17 17 17
18 18 17 17 17 17 16 16 16 16 15 15 15 15 15 15 15 15 15 15 14 14 14 14 15 15 15 16 16 16 16 16 16 16 16 16 16 17 17 17 17 17 17
18 18 18 17 17 17 16 16 16 15 15 15 15 15 15 15 15 15 15 14 14 14 14 14 15 15 15 15 16 16 16 16 16 16 16 16 16 17 17 17 17 17 17
19 18 18 17 17 17 17 16 16 16 15 15 15 15 15 15 15 14 15 14 14 14 14 14 15 15 15 15 15 15 16 16 16 16 16 16 16 16 17 17 17 17 17
19 18 18 17 17 17 16 16 16 15 15 15 15 15 15 14 14 14 14 14 14 14 14 14 14 15 15 15 15 15 15 15 15 16 16 16 16 16 16 16 17 17 17
19 18 18 17 17 17 16 16 16 15 15 15 15 14 15 14 14 14 14 14 14 14 14 14 14 15 15 15 15 15 15 15 15 15 16 16 16 16 16 16 16 16 17
19 18 18 17 17 17 16 16 16 15 15 15 15 14 14 14 14 14 14 14 14 14 14 14 14 15 15 15 15 15 15 15 15 15 16 16 16 15 16 16 16 16 16
19 18 18 18 17 17 16 16 16 15 15 15 15 14 14 14 14 14 14 14 14 14 14 14 14 14 14 15 15 15 15 15 15 15 15 15 15 15 15 16 16 16 16
19 18 18 18 17 17 16 16 16 16 15 15 15 15 14 14 14 14 14 14 14 14 14 14 14 14 14 15 15 15 15 15 15 15 15 15 15 15 15 15 16 16 16
19 18 18 18 17 17 17 16 16 16 15 15 15 15 14 14 14 14 14 14 14 14 14 14 14 14 14 14 15 16 16 16 15 15 15 15 15 15 15 15 16 16 16
19 19 18 18 17 17 17 16 16 16 16 15 15 15 15 14 14 14 14 14 14 14 14 14 14 14 14 14 14 15 16 16 15 15 15 15 15 15 15 15 15 15 16
19 19 18 18 18 17 17 17 17 16 16 16 15 15 15 15 14 14 14 14 14 14 14 14 14 14 14 14 14 14 14 15 15 15 15 15 15 15 15 15 15 15 15
19 19 18 18 18 17 17 17 16 16 16 16 15 15 15 15 15 15 14 14 14 14 14 14 14 14 14 14 14 14 14 14 15 15 15 15 15 15 15 15 15 15 15
19 19 19 18 18 18 17 17 17 16 16 16 16 15 15 15 15 15 14 14 14 14 14 14 14 14 14 14 14 14 14 14 14 15 15 15 15 15 14 14 15 15 15
Wind_Speed
5 7 9 9 10 10 11 11 10 11 11 11 11 10 10 9 9 9 9 8 8 8 7 7 7 7 7 6 6 6 5 6 5 5 5 5 5 4 4 5 5 3 5
7 8 10 9 10 10 11 10 11 11 11 11 10 10 10 10 10 9 8 8 8 8 7 7 7 6 6 6 6 5 5 5 5 5 3 2 4 5 5 5 6 6 6
8 8 10 10 10 11 11 11 11 11 11 11 10 10 10 10 10 9 9 8 8 7 7 7 7 6 6 6 6 5 5 5 5 3 4 1 4 6 5 5 5 5 6
9 9 11 11 11 11 12 12 12 12 11 11 11 11 10 9 9 8 8 8 8 8 7 6 6 6 6 6 6 6 5 5 5 5 2 4 4 7 6 5 5 6 6
9 10 12 11 12 12 13 12 12 12 12 11 11 10 10 9 8 7 7 7 7 7 7 6 6 6 6 6 5 5 5 5 4 4 3 3 4 6 5 5 5 5 6
10 12 13 11 12 13 13 13 12 12 11 10 10 9 9 8 7 7 6 6 6 6 6 6 6 6 5 5 5 5 5 5 5 3 3 3 4 6 5 5 5 6 6
11 12 14 12 13 13 13 12 12 11 10 9 9 8 7 7 6 6 6 6 6 6 6 6 6 5 5 5 4 4 4 4 3 2 2 2 5 6 5 5 5 5 6
11 11 13 13 12 12 12 11 11 10 10 9 8 8 7 7 7 6 6 6 6 6 6 5 5 5 5 4 4 3 3 6 2 2 2 2 5 5 4 4 5 5 5
10 9 10 11 11 11 11 10 10 10 10 9 8 8 7 7 7 6 6 6 6 6 6 6 5 5 5 4 3 3 3 4 4 2 2 2 5 4 4 4 5 5 4
8 8 8 8 7 8 9 10 9 9 9 8 8 7 5 3 4 4 4 7 7 7 7 7 6 5 4 4 3 3 3 6 2 1 1 4 4 3 4 4 5 4 4
7 6 6 6 6 5 6 6 5 6 6 4 5 5 3 4 5 4 9 8 7 7 7 7 6 4 3 1 1 2 5 2 0 1 2 6 4 3 3 4 5 5 4
7 6 5 5 4 4 4 4 4 5 6 6 7 6 5 5 5 5 5 5 6 5 3 4 3 2 5 0 2 4 2 1 1 1 4 6 3 3 3 4 5 5 5
6 5 4 4 3 3 3 4 4 4 5 6 6 6 4 4 4 5 4 3 4 4 5 3 3 3 2 2 2 1 1 1 1 1 5 6 4 4 4 5 6 6 5
5 5 4 3 3 3 4 4 3 4 5 6 6 7 5 4 4 5 5 6 5 5 5 4 4 3 3 2 1 1 1 1 1 2 5 7 5 5 5 5 5 6 5
5 4 4 3 3 3 4 3 4 5 6 7 6 7 6 5 4 4 5 5 5 5 4 4 4 4 3 3 3 2 2 2 2 2 4 7 6 6 6 5 5 6 6
5 5 5 4 4 4 4 4 5 6 6 7 7 7 7 6 5 5 5 5 6 6 5 4 4 3 2 3 3 3 2 2 2 1 2 5 7 7 7 6 6 6 6
5 5 6 5 5 5 6 6 6 6 7 7 7 8 8 8 7 6 6 6 6 6 5 5 4 3 3 2 3 3 3 3 3 3 3 2 4 7 7 7 6 6 6
5 6 6 5 6 6 6 6 6 6 7 7 7 7 9 9 8 7 6 6 7 6 5 4 4 4 4 3 3 3 3 4 4 4 3 3 3 4 6 8 6 6 7
5 6 7 7 6 6 6 6 6 6 6 6 7 7 8 8 8 7 6 7 8 6 6 5 5 4 4 4 4 4 4 4 4 4 4 5 5 4 4 6 6 6 7
6 6 7 7 6 6 5 5 5 5 5 6 6 7 8 8 8 7 6 8 8 6 6 6 6 5 4 4 4 4 4 4 4 5 5 5 5 5 5 5 4 5 7
7 7 7 7 6 5 4 4 4 4 4 4 6 7 7 7 8 8 6 8 7 7 7 7 6 6 5 4 3 4 5 5 6 5 5 4 5 5 5 5 4 4 4
8 8 8 7 6 5 3 4 3 4 3 4 4 5 6 7 8 7 7 6 7 6 7 8 6 5 5 5 3 2 3 4 5 6 5 5 5 4 5 5 5 4 4
9 8 7 7 7 5 5 4 4 4 3 3 3 4 5 6 7 7 7 7 6 7 7 7 7 7 5 5 6 4 2 3 2 4 5 5 6 5 4 5 5 5 4
9 8 8 7 7 6 5 4 4 2 3 3 3 3 4 5 6 6 7 7 7 6 6 7 7 6 5 5 5 5 5 4 2 2 4 6 6 6 6 5 5 5 5
9 8 7 7 7 6 5 4 3 3 3 3 2 3 3 4 5 5 6 6 6 6 7 7 7 7 6 6 5 4 4 3 3 2 3 4 4 5 5 5 4 5 5
8 8 8 8 7 6 5 5 3 3 3 3 2 2 2 3 3 5 5 5 6 6 6 6 6 7 7 6 5 5 4 4 4 3 3 4 4 4 4 4 4 5 5
Wind_Direction
99 98 99 103 103 103 102 103 102 98 94 94 93 90 86 82 78 74 72 66 63 59 53 53 55 57 58 55 51 47 47 43 41 38 37 39 38 34 26 12 342 14 35
105 99 101 102 103 101 98 98 97 94 92 92 90 87 85 81 77 73 69 62 56 55 48 45 45 47 47 44 42 38 36 35 33 30 17 77 71 40 27 16 360 14 12
100 98 104 98 97 95 93 90 90 88 87 86 85 83 81 78 74 70 64 58 53 51 45 39 38 39 36 34 33 32 33 30 27 11 288 19 78 57 28 20 11 7 1
95 91 89 93 91 90 90 89 87 85 83 82 81 80 77 74 70 67 64 58 52 46 40 34 33 33 29 28 26 24 26 26 16 313 312 30 35 56 22 14 10 6 1
95 91 90 91 90 87 85 86 85 83 82 81 80 78 75 72 68 64 61 53 46 40 34 27 25 25 23 22 22 23 22 16 338 300 18 20 29 42 16 13 11 9 6
99 94 91 87 88 86 85 83 81 80 78 78 75 72 69 65 60 57 50 42 37 29 24 23 18 15 14 13 13 17 15 358 294 10 3 4 32 35 14 13 15 12 13
99 95 93 86 86 85 83 80 77 75 73 70 67 63 60 57 52 47 43 36 28 21 18 17 13 9 6 2 360 1 1 332 317 355 344 13 35 22 15 15 13 11 14
100 98 98 89 81 79 78 75 73 71 67 63 59 54 50 47 44 40 37 30 23 18 17 15 13 10 6 357 352 349 345 312 297 336 353 31 38 9 7 16 14 12 13
102 99 98 100 97 89 77 68 66 61 57 55 49 46 44 42 40 38 33 25 20 22 20 15 14 13 10 2 357 352 343 308 295 315 324 44 42 6 10 19 14 10 7
111 106 100 95 90 89 87 73 61 56 51 49 46 41 35 58 63 46 35 34 22 24 22 20 20 15 10 11 9 353 296 257 285 306 330 58 37 6 13 18 9 4 5
119 114 108 104 95 84 75 76 70 70 51 43 64 53 4 30 38 42 39 33 30 28 25 22 18 8 328 135 68 315 263 269 29 319 29 46 18 12 20 18 9 4 4
127 121 115 109 99 84 68 67 54 52 47 36 34 30 27 31 29 26 78 53 40 24 32 33 347 281 276 4 142 229 244 268 260 76 67 45 24 32 38 29 20 15 12
118 117 113 108 96 77 70 51 47 43 44 42 33 30 26 28 32 30 22 41 23 356 1 11 311 353 349 19 345 341 13 318 344 48 71 48 34 43 44 39 33 23 17
116 111 107 107 105 80 66 62 50 47 42 40 35 29 27 28 20 29 22 17 7 8 -0 353 350 4 359 14 2 360 56 339 31 48 75 55 43 44 44 38 39 31 22
119 117 105 102 93 88 78 64 62 57 48 56 40 34 34 32 31 26 27 15 9 6 3 357 354 12 359 15 23 18 31 45 48 37 83 73 54 49 47 42 39 36 30
122 108 107 108 98 95 93 78 67 68 67 54 48 42 40 41 35 23 29 24 19 9 6 358 12 12 19 32 37 39 30 53 63 52 75 97 84 61 49 46 42 38 41
118 114 108 104 100 96 86 76 75 70 64 58 52 46 50 45 39 34 28 29 22 15 13 13 23 13 34 48 54 49 54 42 48 60 62 62 94 89 69 54 46 41 48
126 120 115 112 110 102 95 90 85 75 68 62 56 49 47 45 39 36 31 31 24 20 22 26 23 26 38 39 51 57 63 59 54 58 68 72 57 61 84 69 57 52 54
132 129 121 116 115 109 104 99 90 84 72 63 57 48 40 38 34 41 33 27 28 28 27 26 33 29 44 45 63 64 59 62 60 54 58 58 62 52 61 83 80 68 59
142 137 126 124 125 120 118 112 103 91 79 65 58 51 39 36 35 37 38 35 29 36 34 35 37 40 40 38 63 74 68 68 63 57 47 52 53 52 50 51 73 91 82
156 151 142 146 143 140 134 126 112 101 88 74 60 50 45 41 38 40 33 36 28 37 34 34 32 48 45 31 64 85 87 75 63 57 47 44 53 50 50 50 47 49 92
165 165 158 154 151 147 129 116 110 104 89 76 70 67 48 43 37 35 36 38 38 37 38 35 32 33 44 30 20 49 80 90 61 54 49 44 40 47 44 44 50 46 43
174 173 164 158 158 155 145 131 129 122 124 108 85 66 47 42 40 36 36 32 34 36 38 32 30 33 40 44 34 16 30 47 36 58 46 46 38 33 39 37 38 41 43
177 172 168 162 162 157 159 157 142 123 103 84 73 73 65 51 45 38 35 31 35 38 38 38 39 33 29 41 49 38 37 43 17 45 49 41 36 33 28 30 31 32 37
171 170 167 160 161 162 166 157 162 133 109 101 95 82 65 62 47 42 36 35 36 39 40 40 38 34 38 35 36 37 41 38 26 35 36 22 36 36 27 25 30 31 29
166 166 166 161 160 163 171 170 165 138 132 115 101 80 73 73 58 52 39 39 39 41 41 41 42 44 39 39 34 35 31 30 25 29 26 24 25 26 28 30 26 27 23
Height
1539 1539 1538 1539 1540 1540 1541 1541 1542 1542 1542 1542 1542 1542 1542 1542 1542 1542 1542 1542 1542 1542 1541 1541 1541 1541 1540 1540 1540 1539 1539 1539 1538 1538 1537 1537 1537 1536 1536 1535 1534 1535 1533
1540 1540 1540 1540 1541 1541 1542 1542 1542 1542 1543 1543 1543 1543 1543 1543 1543 1543 1543 1542 1542 1542 1542 1541 1541 1541 1541 1540 1540 1540 1540 1539 1539 1539 1538 1538 1537 1537 1536 1535 1534 1534 1532
1542 1542 1541 1542 1542 1542 1543 1543 1543 1543 1543 1543 1543 1544 1543 1543 1543 1543 1543 1542 1542 1542 1542 1542 1541 1541 1541 1541 1541 1540 1540 1540 1539 1539 1539 1540 1539 1537 1537 1536 1535 1534 1532
1543 1543 1543 1543 1543 1543 1544 1544 1544 1544 1544 1544 1544 1544 1544 1544 1544 1543 1543 1543 1542 1542 1542 1541 1541 1541 1541 1541 1541 1540 1540 1540 1540 1540 1541 1541 1540 1538 1537 1536 1535 1534 1532
1544 1545 1544 1544 1545 1545 1545 1545 1545 1545 1545 1545 1545 1545 1545 1544 1544 1543 1543 1543 1542 1542 1542 1541 1541 1541 1540 1540 1540 1540 1540 1540 1540 1541 1541 1540 1539 1538 1537 1536 1535 1534 1533
1546 1547 1546 1546 1546 1546 1546 1546 1546 1546 1546 1546 1546 1546 1546 1545 1545 1544 1544 1543 1542 1542 1541 1541 1541 1540 1540 1540 1540 1540 1540 1540 1541 1541 1540 1540 1540 1538 1538 1537 1536 1535 1533
1549 1549 1548 1548 1548 1548 1548 1548 1548 1548 1548 1547 1547 1547 1546 1546 1545 1545 1544 1543 1543 1542 1541 1541 1540 1540 1539 1539 1539 1539 1539 1540 1541 1541 1541 1540 1539 1538 1538 1537 1536 1535 1534
1550 1551 1551 1550 1550 1550 1550 1550 1549 1549 1549 1549 1548 1548 1547 1547 1546 1545 1545 1544 1543 1542 1541 1540 1540 1539 1539 1539 1539 1539 1539 1539 1541 1542 1541 1541 1539 1539 1538 1538 1537 1536 1535
1552 1553 1554 1554 1553 1552 1552 1552 1551 1551 1550 1550 1549 1549 1548 1547 1547 1546 1545 1544 1543 1542 1541 1540 1540 1539 1538 1538 1538 1538 1539 1539 1540 1541 1542 1541 1539 1539 1538 1538 1537 1536 1535
1554 1555 1555 1556 1556 1556 1555 1554 1553 1553 1552 1551 1550 1549 1549 1548 1547 1546 1546 1544 1543 1542 1541 1540 1539 1539 1538 1538 1538 1538 1539 1539 1541 1541 1542 1541 1539 1539 1539 1538 1537 1536 1535
1556 1557 1557 1557 1557 1557 1557 1556 1555 1554 1553 1552 1552 1550 1550 1550 1549 1548 1546 1544 1543 1542 1541 1540 1539 1538 1538 1538 1537 1538 1539 1540 1540 1541 1541 1539 1539 1539 1539 1538 1537 1536 1536
1558 1559 1559 1559 1559 1559 1558 1558 1557 1556 1555 1554 1553 1552 1551 1550 1549 1548 1546 1545 1543 1542 1541 1540 1539 1538 1538 1539 1538 1538 1540 1540 1540 1541 1540 1539 1539 1539 1539 1538 1537 1536 1536
1559 1560 1560 1561 1560 1560 1560 1559 1558 1557 1556 1555 1554 1552 1551 1551 1550 1549 1548 1546 1545 1543 1542 1541 1540 1540 1540 1539 1539 1539 1539 1540 1540 1541 1540 1539 1539 1539 1539 1539 1538 1537 1536
1561 1561 1561 1561 1561 1561 1561 1560 1559 1558 1557 1556 1555 1553 1553 1552 1551 1549 1548 1546 1545 1543 1542 1541 1540 1540 1540 1539 1539 1540 1540 1540 1540 1540 1539 1539 1539 1539 1539 1539 1538 1537 1536
1561 1562 1562 1562 1562 1562 1561 1560 1560 1559 1558 1557 1555 1554 1553 1552 1551 1550 1549 1546 1545 1544 1543 1541 1541 1540 1540 1540 1539 1540 1540 1539 1540 1540 1540 1539 1539 1539 1539 1539 1538 1538 1537
1562 1563 1563 1563 1563 1563 1562 1562 1561 1560 1559 1558 1556 1555 1554 1553 1552 1551 1550 1547 1546 1544 1543 1542 1541 1540 1540 1540 1540 1539 1540 1540 1540 1540 1540 1540 1539 1540 1539 1539 1539 1538 1538
1563 1564 1564 1563 1563 1564 1563 1563 1562 1561 1561 1559 1558 1557 1556 1554 1553 1552 1551 1549 1547 1545 1544 1543 1542 1541 1541 1540 1540 1540 1540 1540 1540 1540 1540 1541 1541 1540 1540 1540 1539 1539 1538
1564 1564 1564 1564 1564 1564 1564 1564 1563 1563 1562 1561 1560 1559 1558 1556 1555 1553 1551 1550 1548 1547 1545 1544 1542 1542 1541 1541 1541 1541 1541 1540 1540 1541 1541 1541 1541 1541 1541 1540 1540 1540 1539
1564 1565 1566 1566 1566 1565 1565 1565 1564 1564 1563 1562 1561 1560 1559 1558 1556 1555 1553 1551 1550 1548 1546 1545 1544 1543 1542 1541 1541 1541 1541 1541 1541 1541 1541 1542 1541 1541 1541 1541 1540 1540 1540
1564 1566 1566 1566 1566 1566 1566 1566 1566 1565 1565 1564 1563 1561 1559 1559 1557 1556 1555 1554 1552 1550 1548 1547 1545 1544 1543 1543 1543 1542 1542 1542 1542 1542 1542 1542 1542 1542 1542 1542 1542 1541 1541
1564 1566 1567 1567 1567 1567 1567 1568 1568 1568 1567 1566 1564 1562 1561 1560 1559 1558 1557 1555 1553 1552 1550 1549 1547 1546 1545 1544 1544 1544 1544 1544 1544 1543 1543 1543 1543 1543 1543 1542 1542 1542 1542
1564 1566 1567 1568 1568 1568 1568 1569 1568 1568 1568 1567 1566 1564 1564 1562 1561 1560 1558 1557 1555 1553 1552 1550 1548 1548 1547 1546 1546 1546 1546 1547 1546 1545 1545 1544 1544 1544 1544 1544 1543 1543 1543
1564 1566 1567 1568 1568 1569 1569 1569 1569 1569 1569 1568 1568 1566 1565 1564 1562 1561 1560 1559 1557 1556 1554 1552 1551 1550 1549 1548 1547 1548 1547 1547 1547 1547 1546 1546 1545 1545 1545 1544 1544 1544 1544
1563 1565 1567 1568 1568 1569 1569 1570 1570 1570 1571 1570 1569 1568 1567 1565 1564 1562 1561 1560 1559 1558 1556 1555 1553 1552 1551 1551 1550 1549 1549 1549 1549 1548 1548 1547 1546 1546 1545 1545 1545 1544 1544
1562 1564 1566 1567 1568 1568 1569 1570 1570 1571 1571 1570 1570 1569 1568 1567 1565 1564 1563 1561 1560 1559 1558 1556 1555 1554 1553 1552 1552 1551 1550 1550 1550 1550 1549 1549 1548 1547 1546 1546 1545 1545 1545
1560 1562 1564 1566 1567 1568 1569 1570 1570 1571 1571 1571 1570 1570 1569 1568 1566 1565 1564 1563 1562 1561 1559 1558 1557 1556 1555 1554 1553 1553 1552 1552 1551 1551 1550 1549 1549 1548 1547 1547 1546 1545 1545